Date String (YYYY-MM-DD hh:mm:ss) UTC,Instrument flags,Ambient pressure (hPa),Sample flow (lpm),Bypass flow (lpm),Sample temperature (°C),Ambient temperature (°C),ASC tube jacket temperature (°C),LED temperature (°C),Box temperature (°C),Sample RH (%),Span deviation,Mass concentration (μg/m³),Mass concentration (μg/m³),Mass concentration (μg/m³)
DateTimeUTC,F1_M11,P_M11,Q1_M11,Q2_M11,T1_M11,T2_M11,T3_M11,T4_M11,T5_M11,U1_M11,ZSPAN_M11,X0_M11,X2_M11,X1_M11
2022-12-13 05:00:00,,0811.5,5.03,0.00,22.5,21.7,00.0,31.2,24.4,12.9,-000.1,0013.93,0006.60,0005.64
2022-12-13 05:01:00,,0811.5,4.99,0.00,22.5,21.4,00.0,31.2,24.3,12.9,0000.1,0014.80,0006.63,0005.66
2022-12-13 05:02:00,,0811.5,4.98,0.00,22.5,21.3,00.0,31.3,24.3,12.9,0000.1,0015.17,0006.61,0005.66
2022-12-13 05:03:00,,0811.5,5.03,0.00,22.5,21.2,00.0,31.3,24.3,12.9,0000.3,0015.27,0006.66,0005.68
2022-12-13 05:04:00,,0811.6,4.98,0.00,22.4,21.1,00.0,31.3,24.3,12.9,0000.1,0014.71,0006.69,0005.70
2022-12-13 05:05:00,,0811.5,5.03,0.00,22.4,21.0,00.0,31.3,24.3,12.9,-000.2,0014.92,0006.71,0005.72
2022-12-13 05:06:00,,0811.5,4.98,0.00,22.4,21.0,00.0,31.3,24.2,12.9,-000.4,0015.84,0006.75,0005.74
2022-12-13 05:07:00,,0811.5,4.99,0.00,22.4,20.9,00.0,31.3,24.2,12.9,-000.7,0015.79,0006.76,0005.74
2022-12-13 05:08:00,,0811.5,5.02,0.00,22.4,20.8,00.0,31.3,24.2,12.9,-001.1,0015.78,0006.77,0005.74
2022-12-13 05:09:00,,0811.6,4.99,0.00,22.4,20.8,00.0,31.3,24.2,12.9,-002.0,0016.10,0006.81,0005.76
2022-12-13 05:10:00,,0811.5,5.03,0.00,22.4,20.8,00.0,31.2,24.2,12.9,-002.0,0016.08,0006.79,0005.76
2022-12-13 05:11:00,,0811.5,4.98,0.00,22.4,20.7,00.0,31.2,24.2,12.9,-001.8,0015.45,0006.74,0005.76
2022-12-13 05:12:00,,0811.5,5.02,0.00,22.3,20.7,00.0,31.2,24.1,13.0,-002.2,0014.27,0006.69,0005.77
2022-12-13 05:13:00,,0811.6,4.98,0.00,22.3,20.7,00.0,31.2,24.1,13.0,-001.8,0014.27,0006.73,0005.80
2022-12-13 05:14:00,,0811.5,5.02,0.00,22.3,20.8,00.0,31.2,24.1,13.0,-002.0,0014.76,0006.74,0005.80
2022-12-13 05:15:00,,0811.6,4.99,0.00,22.3,20.8,00.0,31.2,24.1,13.0,-002.2,0014.36,0006.72,0005.81
2022-12-13 05:16:00,,0811.6,4.99,0.00,22.3,21.2,00.0,31.2,24.2,13.0,-002.1,0014.31,0006.71,0005.80
2022-12-13 05:17:00,,0811.6,5.03,0.00,22.4,22.1,00.0,31.2,24.4,12.9,-002.2,0013.77,0006.66,0005.79
2022-12-13 05:18:00,,0811.5,4.99,0.00,22.5,22.3,00.0,31.2,24.5,12.9,-002.1,0013.93,0006.65,0005.80
2022-12-13 05:19:00,,0811.5,4.99,0.00,22.5,22.0,00.0,31.3,24.5,12.9,-001.9,0014.03,0006.62,0005.81
2022-12-13 05:20:00,,0811.6,5.00,0.00,22.5,21.7,00.0,31.3,24.4,12.9,-001.0,0013.80,0006.58,0005.80
2022-12-13 05:21:00,,0811.6,5.02,0.00,22.5,21.5,00.0,31.3,24.4,12.9,-000.9,0014.49,0006.58,0005.80
2022-12-13 05:22:00,,0811.5,4.98,0.00,22.5,21.3,00.0,31.3,24.3,12.9,-001.1,0014.64,0006.65,0005.82
2022-12-13 05:23:00,,0811.5,5.01,0.00,22.5,21.2,00.0,31.3,24.3,12.9,-001.1,0015.27,0006.68,0005.83
2022-12-13 05:24:00,,0811.4,5.00,0.00,22.5,21.2,00.0,31.3,24.3,12.9,-001.4,0015.28,0006.68,0005.82
2022-12-13 05:25:00,,0811.4,4.98,0.00,22.5,21.1,00.0,31.3,24.3,12.9,-001.6,0014.36,0006.64,0005.82
2022-12-13 05:26:00,,0811.4,5.03,0.00,22.5,21.0,00.0,31.3,24.3,12.9,-001.4,0014.43,0006.62,0005.80
2022-12-13 05:27:00,,0811.4,4.98,0.00,22.5,21.0,00.0,31.3,24.3,12.9,-001.2,0013.73,0006.58,0005.79
2022-12-13 05:28:00,,0811.4,5.02,0.00,22.4,20.9,00.0,31.3,24.2,12.9,-000.9,0013.17,0006.59,0005.79
2022-12-13 05:29:00,,0811.4,4.99,0.00,22.4,20.9,00.0,31.3,24.2,13.0,-000.7,0013.24,0006.61,0005.79
2022-12-13 05:30:00,,0811.3,4.98,0.00,22.4,20.8,00.0,31.3,24.2,13.0,-000.6,0013.65,0006.67,0005.80
2022-12-13 05:31:00,,0811.3,5.02,0.00,22.4,20.9,00.0,31.3,24.2,13.0,-000.6,0013.40,0006.69,0005.80
2022-12-13 05:32:00,,0811.3,4.98,0.00,22.4,20.8,00.0,31.3,24.2,13.0,-000.5,0012.80,0006.69,0005.81
2022-12-13 05:33:00,,0811.3,5.03,0.00,22.4,20.8,00.0,31.3,24.2,13.0,-000.5,0012.70,0006.65,0005.79
2022-12-13 05:34:00,,0811.3,4.98,0.00,22.4,20.7,00.0,31.3,24.2,13.0,-000.2,0012.35,0006.69,0005.77
2022-12-13 05:35:00,,0811.3,5.01,0.00,22.3,20.7,00.0,31.3,24.1,13.0,-000.1,0012.03,0006.69,0005.78
2022-12-13 05:36:00,,0811.2,4.98,0.00,22.3,20.7,00.0,31.2,24.1,13.1,0000.1,0012.09,0006.78,0005.81
2022-12-13 05:37:00,,0811.2,5.02,0.00,22.3,20.6,00.0,31.2,24.1,13.1,0000.5,0012.18,0006.81,0005.83
2022-12-13 05:38:00,,0811.2,4.98,0.00,22.3,20.6,00.0,31.2,24.1,13.1,0000.4,0012.54,0006.85,0005.83
2022-12-13 05:39:00,,0811.2,5.02,0.00,22.3,20.6,00.0,31.2,24.1,13.1,0000.0,0012.60,0006.85,0005.83
2022-12-13 05:40:00,,0811.1,4.98,0.00,22.3,20.6,00.0,31.2,24.1,13.1,-000.1,0012.50,0006.89,0005.82
2022-12-13 05:41:00,,0811.0,5.03,0.00,22.3,21.0,00.0,31.2,24.1,13.0,-000.2,0012.17,0006.88,0005.83
2022-12-13 05:42:00,,0811.0,4.99,0.00,22.4,21.9,00.0,31.2,24.3,13.0,-000.3,0012.85,0006.89,0005.84
2022-12-13 05:43:00,,0811.0,4.99,0.00,22.5,22.3,00.0,31.2,24.5,12.9,-000.4,0013.45,0006.89,0005.83
2022-12-13 05:44:00,,0810.9,4.99,0.00,22.5,22.0,00.0,31.2,24.5,12.9,-000.5,0013.83,0006.90,0005.84
2022-12-13 05:45:00,,0810.9,5.00,0.00,22.5,21.8,00.0,31.2,24.4,12.9,-000.2,0014.12,0006.87,0005.84
2022-12-13 05:46:00,,0810.8,5.00,0.00,22.5,21.6,00.0,31.3,24.4,12.9,-000.3,0013.98,0006.82,0005.83
2022-12-13 05:47:00,,0810.9,5.01,0.00,22.5,21.5,00.0,31.3,24.4,12.9,-000.5,0013.82,0006.74,0005.80
2022-12-13 05:48:00,,0811.0,5.00,0.00,22.5,21.4,00.0,31.3,24.4,12.9,-000.9,0013.53,0006.72,0005.79
2022-12-13 05:49:00,,0811.0,5.00,0.00,22.5,21.3,00.0,31.3,24.4,12.9,-000.9,0013.37,0006.74,0005.79
2022-12-13 05:50:00,,0811.0,5.01,0.00,22.5,21.3,00.0,31.3,24.4,12.9,-000.9,0014.01,0006.76,0005.80
2022-12-13 05:51:00,,0811.0,5.00,0.00,22.5,21.2,00.0,31.3,24.4,12.9,-001.0,0014.20,0006.70,0005.81
2022-12-13 05:52:00,,0811.1,5.00,0.00,22.5,21.2,00.0,31.3,24.4,12.9,-001.1,0014.13,0006.66,0005.80
2022-12-13 05:53:00,,0811.1,4.99,0.00,22.5,21.2,00.0,31.3,24.4,12.9,-000.8,0013.42,0006.64,0005.80
2022-12-13 05:54:00,,0811.1,4.99,0.00,22.5,21.1,00.0,31.3,24.4,12.9,-000.8,0013.17,0006.67,0005.80
2022-12-13 05:55:00,,0811.1,5.00,0.00,22.5,21.1,00.0,31.3,24.3,12.8,-000.4,0012.92,0006.66,0005.79
2022-12-13 05:56:00,,0811.0,5.01,0.00,22.5,21.2,00.0,31.3,24.3,12.9,-000.3,0012.41,0006.62,0005.78
2022-12-13 05:57:00,,0811.0,5.02,0.00,22.5,21.1,00.0,31.3,24.3,12.9,-000.0,0012.56,0006.67,0005.78
2022-12-13 05:58:00,,0811.0,4.99,0.00,22.5,21.1,00.0,31.3,24.3,12.9,0000.1,0012.92,0006.73,0005.78
2022-12-13 05:59:00,,0811.0,4.99,0.00,22.5,21.0,00.0,31.3,24.3,12.9,0000.2,0012.99,0006.72,0005.78
